Weather Roundup
Issued by NWS Chicago, IL

Home | Current Version | Previous Version | Graphics & Text | Print | Product List | Glossary On
Versions: 1 2 3 4 5 6 7 8 9 10 11 12 13 14 15 16 17 18 19 20 21 22 23 24 25 26 27 28 29 30 31 32 33 34 35 36 37 38 39 40 41 42 43 44 45 46 47 48 49 50
000
NZUS59 KLOT 290910
HRRLOT

CHICAGO AREA WEATHER ROUNDUP
NATIONAL WEATHER SERVICE CHICAGO/ROMEOVILLE IL
400 AM CDT FRI AUG 29 2014

NOTE: "FAIR" INDICATES FEW OR NO CLOUDS BELOW 12,000 FEET WITH NO
SIGNIFICANT WEATHER AND/OR OBSTRUCTIONS TO VISIBILITY.

* THESE STATIONS ARE NOT UNDER NWS QUALITY CONTROL. THEY ALSO MAY NOT
  REPORT WEATHER SUCH AS PRECIPITATION OR FOG.

ILZ005-006-012>014-019>023-291000-
NORTHEAST ILLINOIS

CITY           SKY/WX    TMP DP  RH WIND       PRES   REMARKS
OHARE          CLOUDY    71  63  75 S7        29.97S
MIDWAY         CLOUDY    73  66  78 S7        29.97F
AURORA         CLOUDY    69  66  90 SE5       29.97F FOG
LANSING*       CLOUDY    70  64  81 SE7       29.99S
JOLIET*        CLOUDY    68  65  91 SE3       29.98S
WAUKEGAN       CLOUDY    71  65  81 SE5       29.97S
DUPAGE AIRPORT CLOUDY    70  66  87 S7        29.97F
WHEELING       CLOUDY    72  65  78 S8        29.99R
KANKAKEE*      CLOUDY    70  67  90 SE7       29.99S
MORRIS*        CLOUDY    69  69 100 CALM      29.97S
LEWIS AIRPORT* CLOUDY    68  67  96 S5        29.98S
NORTHERLY IS     N/A     71  63  75 SE8         N/A
$$

WIZ051-052-058>065-066-070>072-291000-
SOUTHEAST WISCONSIN

CITY           SKY/WX    TMP DP  RH WIND       PRES   REMARKS
MILWAUKEE      PTCLDY    70  66  87 S10       29.97S
KENOSHA*       MOCLDY    71  67  87 S10       29.98S
RACINE*        MOCLDY    71  67  87 S10       29.99S
BURLINGTON     PTCLDY    63  63  99 CALM      29.97S
WAUKESHA       PTCLDY    63  61  94 CALM      29.98S
WEST BEND      MOCLDY    64  61  88 SE3       29.97S
$$

INZ001>003-010>013-019-020-291000-
NORTHWEST INDIANA

CITY           SKY/WX    TMP DP  RH WIND       PRES   REMARKS
GARY*          CLOUDY    72  64  78 SE7       29.99S
MICHIGAN CITY* NOT AVBL
RENSSELAER*    NOT AVBL
VALPARAISO     CLOUDY    68  62  81 SE6       30.02S
$$

LMZ740>746-291000-
SOUTHERN LAKE MICHIGAN

STATION/POSITION TIME  SKY/WX   TEMP WIND        PRES    VSBY
                                AIR  DIR/SP/G
                 (UTC)          (F)  (DEG/KT/KT) (MB)    (MI)
HARRISON CRIB    0900            72  170/ 19/ 22   N/A
BURNHAM HARBOR   0900            71  170/  8/ 11   N/A
CALUMET HARBOR   0900            71  150/  8/ 11 1013.9F
BURNS HARBOR     NOT AVBL
MICHIGAN CITY    0900            70  130/ 11/ 15   N/A
$$

ABBREVIATIONS USED IN REMARKS
   TC - TEMPERATURE IN CELSIUS
  WCI - WIND CHILL INDEX
   HX - HEAT INDEX
  VSB - VISIBILITY
$$



USA.gov is the U.S. government's official web portal to all federal, state and local government web resources and services.